Regional Weather Roundup
Issued by NWS

Home | Current Version | Previous Version | Text Only | Print | Product List | Glossary Off
Versions: 1 2 3 4 5 6 7 8 9 10 11 12 13 14 15 16 17 18 19 20 21 22 23 24 25 26 27 28

000
ASUS45 KCYS 291310
RWRWY

WYOMING REGIONAL WEATHER ROUNDUP
NATIONAL WEATHER SERVICE CHEYENNE WY
700 AM MDT THU SEP 29 2016

NOTE:  "FAIR" INDICATES FEW OR NO CLOUDS BELOW 12,000 FEET
WITH NO SIGNIFICANT WEATHER AND/OR OBSTRUCTIONS TO VISIBILITY.

WYZ001-291400-
YELLOWSTONE NATIONAL PARK

CITY           SKY/WX    TMP DP  RH WIND       PRES   REMARKS
LK YELLOWSTONE   N/A     33  33 100 CALM      30.41S
W YELLOWSTONE  NOT AVBL

$$
WYZ002>013-054>058-071-098>099-291400-
NORTHERN WYOMING

CITY           SKY/WX    TMP DP  RH WIND       PRES   REMARKS
JACKSON        CLOUDY    43  39  87 E3        30.34S
CODY           MOCLDY    49  41  74 N3        30.23S
GREYBULL       FAIR      49  43  80 SE6       30.18S
WORLAND        FAIR      47  43  86 SW12      30.20R
SHERIDAN       FAIR      45  39  79 CALM      30.18S
BUFFALO        FAIR      52  38  58 S6        30.24S
GILLETTE       FAIR      52  42  69 VRB3      30.25S
HULETT         FAIR      59  39  47 SW7       30.28S
NEWCASTLE      FAIR      57  36  44 SE8       30.31F

$$
WYZ014>020-022>026-101>103-291400-
CENTRAL WYOMING

CITY           SKY/WX    TMP DP  RH WIND       PRES   REMARKS
BIG PINEY      CLOUDY    46  36  68 CALM      30.38R
PINEDALE       PTSUNNY   45  39  81 W5        30.39S
DUBOIS         PTSUNNY   41  34  75 NW12      30.39S
LANDER         MOCLDY    53  40  61 W5        30.30R
RIVERTON       MOCLDY    48  42  80 S7        30.31R
CASPER         FAIR      41  37  86 NE5       30.30F
DOUGLAS        FAIR      49  39  68 S12       30.31R

$$
WYZ021-027>030-104>119-291400-
SOUTHERN WYOMING

CITY           SKY/WX    TMP DP  RH WIND       PRES   REMARKS
EVANSTON       FAIR      54  37  52 S7        30.35S
FORT BRIDGER   FAIR      55  40  58 SW7       30.38S
ROCK SPRINGS   FAIR      58  40  51 S15       30.36S
DIXON          FAIR      50  35  57 E6        30.42F
RAWLINS        MOCLDY    43  33  68 CALM      30.40R
SARATOGA       FAIR      43  32  65 SE5       30.42F
LARAMIE        FAIR      44  35  70 S13       30.41S
CHEYENNE       FAIR      43  37  79 W3        30.38S
TORRINGTON     FAIR      44  38  79 E10       30.32S
PINE BLUFFS    FAIR      46  39  76 S10       30.37S

$$




USA.gov is the U.S. government's official web portal to all federal, state and local government web resources and services.